Time,TemperatureF,DewpointF,PressureIn,WindDirection,WindDirectionDegrees,WindSpeedMPH,WindSpeedGustMPH,Humidity,HourlyPrecipIn,Conditions,Clouds,dailyrainin,SolarRadiationWatts/m^2,SoftwareType,DateUTC
2013-01-14 00:00:00,25.0,21.0,-100.00,West,270,0.0,-999.0,85,-99.99,,,-99.99,0.000000,,2013-01-14 05:00:00,
2013-01-14 00:43:00,25.0,21.0,-100.00,West,270,0.0,-999.0,85,-99.99,,,-99.99,0.000000,,2013-01-14 05:43:00,
2013-01-14 00:53:00,25.0,21.0,-100.00,West,270,0.0,-999.0,85,-99.99,,,-99.99,0.000000,,2013-01-14 05:53:00,
2013-01-14 01:00:00,24.0,20.0,-100.00,West,270,0.0,-999.0,85,-99.99,,,-99.99,0.000000,,2013-01-14 06:00:00,
2013-01-14 01:43:00,24.0,20.0,-100.00,West,270,0.0,-999.0,85,-99.99,,,-99.99,0.000000,,2013-01-14 06:43:00,
2013-01-14 01:53:00,24.0,20.0,-100.00,West,270,0.0,-999.0,85,-99.99,,,-99.99,0.000000,,2013-01-14 06:53:00,
2013-01-14 03:00:00,22.0,19.0,-100.00,WNW,292,0.0,-999.0,87,-99.99,,,-99.99,0.000000,,2013-01-14 08:00:00,
2013-01-14 03:43:00,22.0,19.0,-100.00,WNW,292,0.0,-999.0,87,-99.99,,,-99.99,0.000000,,2013-01-14 08:43:00,
2013-01-14 03:53:00,22.0,19.0,-100.00,WNW,292,0.0,-999.0,87,-99.99,,,-99.99,0.000000,,2013-01-14 08:53:00,
2013-01-14 04:00:00,21.0,18.0,-100.00,West,270,0.0,-999.0,86,-99.99,,,-99.99,0.000000,,2013-01-14 09:00:00,
2013-01-14 04:34:00,21.0,18.0,-100.00,West,270,0.0,-999.0,86,-99.99,,,-99.99,0.000000,,2013-01-14 09:34:00,
2013-01-14 04:43:00,21.0,18.0,-100.00,West,270,0.0,-999.0,86,-99.99,,,-99.99,0.000000,,2013-01-14 09:43:00,
2013-01-14 04:53:00,21.0,18.0,-100.00,West,270,0.0,-999.0,86,-99.99,,,-99.99,0.000000,,2013-01-14 09:53:00,
2013-01-14 05:00:00,21.0,18.0,-100.00,WNW,292,0.0,-999.0,89,-99.99,,,-99.99,0.000000,,2013-01-14 10:00:00,
2013-01-14 05:43:00,21.0,18.0,-100.00,WNW,292,0.0,-999.0,89,-99.99,,,-99.99,0.000000,,2013-01-14 10:43:00,
2013-01-14 05:53:00,21.0,18.0,-100.00,WNW,292,0.0,-999.0,89,-99.99,,,-99.99,0.000000,,2013-01-14 10:53:00,
2013-01-14 06:00:00,20.0,19.0,-100.00,WNW,292,0.0,-999.0,95,-99.99,,,-99.99,0.000000,,2013-01-14 11:00:00,
2013-01-14 06:43:00,20.0,19.0,-100.00,WNW,292,0.0,-999.0,95,-99.99,,,-99.99,0.000000,,2013-01-14 11:43:00,
2013-01-14 06:53:00,20.0,19.0,-100.00,WNW,292,0.0,-999.0,95,-99.99,,,-99.99,0.000000,,2013-01-14 11:53:00,
2013-01-14 07:00:00,20.0,19.0,-100.00,West,270,0.0,-999.0,98,-99.99,,,-99.99,0.000000,,2013-01-14 12:00:00,
2013-01-14 07:43:00,20.0,19.0,-100.00,West,270,0.0,-999.0,98,-99.99,,,-99.99,0.000000,,2013-01-14 12:43:00,
2013-01-14 07:53:00,20.0,19.0,-100.00,West,270,0.0,-999.0,98,-99.99,,,-99.99,0.000000,,2013-01-14 12:53:00,
2013-01-14 08:00:00,20.0,18.0,-100.00,WNW,292,0.0,-999.0,92,-99.99,,,-99.99,0.000000,,2013-01-14 13:00:00,
2013-01-14 08:34:00,20.0,18.0,-100.00,WNW,292,0.0,-999.0,92,-99.99,,,-99.99,0.000000,,2013-01-14 13:34:00,
2013-01-14 08:43:00,20.0,18.0,-100.00,WNW,292,0.0,-999.0,92,-99.99,,,-99.99,0.000000,,2013-01-14 13:43:00,
2013-01-14 08:53:00,20.0,18.0,-100.00,WNW,292,0.0,-999.0,92,-99.99,,,-99.99,0.000000,,2013-01-14 13:53:00,
2013-01-14 09:00:00,21.0,18.0,-100.00,WNW,292,0.0,-999.0,86,-99.99,,,-99.99,6.960000,,2013-01-14 14:00:00,
2013-01-14 09:33:00,21.0,18.0,-100.00,WNW,292,0.0,-999.0,86,-99.99,,,-99.99,6.960000,,2013-01-14 14:33:00,
2013-01-14 09:43:00,21.0,18.0,-100.00,WNW,292,0.0,-999.0,86,-99.99,,,-99.99,6.960000,,2013-01-14 14:43:00,
2013-01-14 09:53:00,21.0,18.0,-100.00,WNW,292,0.0,-999.0,86,-99.99,,,-99.99,6.960000,,2013-01-14 14:53:00,
2013-01-14 10:00:00,21.0,18.0,-100.00,WNW,292,0.0,-999.0,84,-99.99,,,-99.99,45.240002,,2013-01-14 15:00:00,
2013-01-14 10:43:00,21.0,18.0,-100.00,WNW,292,0.0,-999.0,84,-99.99,,,-99.99,45.240002,,2013-01-14 15:43:00,
2013-01-14 10:53:00,21.0,18.0,-100.00,WNW,292,0.0,-999.0,84,-99.99,,,-99.99,45.240002,,2013-01-14 15:53:00,
2013-01-14 11:00:00,22.0,18.0,-100.00,WNW,292,0.0,-999.0,85,-99.99,,,-99.99,93.959999,,2013-01-14 16:00:00,
2013-01-14 11:33:00,22.0,18.0,-100.00,WNW,292,0.0,-999.0,85,-99.99,,,-99.99,93.959999,,2013-01-14 16:33:00,
2013-01-14 11:43:00,22.0,18.0,-100.00,WNW,292,0.0,-999.0,85,-99.99,,,-99.99,93.959999,,2013-01-14 16:43:00,
2013-01-14 11:53:00,22.0,18.0,-100.00,WNW,292,0.0,-999.0,85,-99.99,,,-99.99,93.959999,,2013-01-14 16:53:00,
2013-01-14 12:00:00,22.0,17.0,-100.00,WNW,292,0.0,-999.0,82,-99.99,,,-99.99,128.759995,,2013-01-14 17:00:00,
2013-01-14 12:43:00,22.0,17.0,-100.00,WNW,292,0.0,-999.0,82,-99.99,,,-99.99,128.759995,,2013-01-14 17:43:00,
2013-01-14 12:54:00,22.0,17.0,-100.00,WNW,292,0.0,-999.0,82,-99.99,,,-99.99,128.759995,,2013-01-14 17:54:00,
2013-01-14 13:00:00,23.0,18.0,-100.00,WNW,292,0.0,-999.0,78,-99.99,,,-99.99,329.440002,,2013-01-14 18:00:00,
2013-01-14 13:43:00,23.0,18.0,-100.00,WNW,292,0.0,-999.0,78,-99.99,,,-99.99,329.440002,,2013-01-14 18:43:00,
2013-01-14 13:53:00,23.0,18.0,-100.00,WNW,292,0.0,-999.0,78,-99.99,,,-99.99,329.440002,,2013-01-14 18:53:00,
2013-01-14 14:00:00,25.0,19.0,-100.00,WNW,292,0.0,-999.0,75,-99.99,,,-99.99,370.040009,,2013-01-14 19:00:00,
2013-01-14 14:43:00,25.0,19.0,-100.00,WNW,292,0.0,-999.0,75,-99.99,,,-99.99,370.040009,,2013-01-14 19:43:00,
2013-01-14 14:53:00,25.0,19.0,-100.00,WNW,292,0.0,-999.0,75,-99.99,,,-99.99,370.040009,,2013-01-14 19:53:00,
2013-01-14 15:00:00,25.0,18.0,-100.00,West,270,0.0,-999.0,76,-99.99,,,-99.99,162.399994,,2013-01-14 20:00:00,
2013-01-14 15:43:00,25.0,18.0,-100.00,West,270,0.0,-999.0,76,-99.99,,,-99.99,162.399994,,2013-01-14 20:43:00,
2013-01-14 15:53:00,25.0,18.0,-100.00,West,270,0.0,-999.0,76,-99.99,,,-99.99,162.399994,,2013-01-14 20:53:00,
2013-01-14 16:00:00,25.0,19.0,-100.00,WNW,292,0.0,-999.0,78,-99.99,,,-99.99,119.480003,,2013-01-14 21:00:00,
2013-01-14 16:43:00,25.0,19.0,-100.00,WNW,292,0.0,-999.0,78,-99.99,,,-99.99,119.480003,,2013-01-14 21:43:00,
2013-01-14 16:53:00,25.0,19.0,-100.00,WNW,292,0.0,-999.0,78,-99.99,,,-99.99,119.480003,,2013-01-14 21:53:00,
2013-01-14 17:00:00,24.0,18.0,-100.00,West,270,0.0,-999.0,77,-99.99,,,-99.99,75.400002,,2013-01-14 22:00:00,
2013-01-14 17:43:00,24.0,18.0,-100.00,West,270,0.0,-999.0,77,-99.99,,,-99.99,75.400002,,2013-01-14 22:43:00,
2013-01-14 17:53:00,24.0,18.0,-100.00,West,270,0.0,-999.0,77,-99.99,,,-99.99,75.400002,,2013-01-14 22:53:00,
2013-01-14 18:00:00,23.0,18.0,-100.00,West,270,0.0,-999.0,79,-99.99,,,-99.99,11.600000,,2013-01-14 23:00:00,
2013-01-14 18:43:00,23.0,18.0,-100.00,West,270,0.0,-999.0,79,-99.99,,,-99.99,11.600000,,2013-01-14 23:43:00,
2013-01-14 18:53:00,23.0,18.0,-100.00,West,270,0.0,-999.0,79,-99.99,,,-99.99,11.600000,,2013-01-14 23:53:00,
2013-01-14 19:00:00,21.0,17.0,-100.00,SW,225,0.0,-999.0,85,-99.99,,,-99.99,0.000000,,2013-01-15 00:00:00,
2013-01-14 19:43:00,21.0,17.0,-100.00,SW,225,0.0,-999.0,85,-99.99,,,-99.99,0.000000,,2013-01-15 00:43:00,
2013-01-14 19:53:00,21.0,17.0,-100.00,SW,225,0.0,-999.0,85,-99.99,,,-99.99,0.000000,,2013-01-15 00:53:00,
2013-01-14 21:00:00,19.0,17.0,-100.00,South,180,0.0,-999.0,91,-99.99,,,-99.99,0.000000,,2013-01-15 02:00:00,
2013-01-14 21:43:00,19.0,17.0,-100.00,South,180,0.0,-999.0,91,-99.99,,,-99.99,0.000000,,2013-01-15 02:43:00,
2013-01-14 21:53:00,19.0,17.0,-100.00,South,180,0.0,-999.0,91,-99.99,,,-99.99,0.000000,,2013-01-15 02:53:00,
2013-01-14 22:00:00,19.0,17.0,-100.00,South,180,0.0,-999.0,90,-99.99,,,-99.99,0.000000,,2013-01-15 03:00:00,
2013-01-14 22:43:00,19.0,17.0,-100.00,South,180,0.0,-999.0,90,-99.99,,,-99.99,0.000000,,2013-01-15 03:43:00,
2013-01-14 22:53:00,19.0,17.0,-100.00,South,180,0.0,-999.0,90,-99.99,,,-99.99,0.000000,,2013-01-15 03:53:00,
2013-01-14 23:00:00,19.0,17.0,-100.00,SW,225,0.0,-999.0,90,-99.99,,,-99.99,0.000000,,2013-01-15 04:00:00,
2013-01-14 23:33:00,19.0,17.0,-100.00,SW,225,0.0,-999.0,90,-99.99,,,-99.99,0.000000,,2013-01-15 04:33:00,
2013-01-14 23:43:00,19.0,17.0,-100.00,SW,225,0.0,-999.0,90,-99.99,,,-99.99,0.000000,,2013-01-15 04:43:00,
2013-01-14 23:52:00,19.0,17.0,-100.00,SW,225,0.0,-999.0,90,-99.99,,,-99.99,0.000000,,2013-01-15 04:52:00,